Regional Weather Roundup
Issued by NWS Albany, NY

Home | Current Version | Previous Version | Graphics & Text | Print | Product List | Glossary Off
Versions: 1 2 3 4 5 6 7 8 9 10 11 12 13 14 15 16 17 18 19 20 21 22 23 24 25 26 27 28 29 30 31 32 33 34 35 36 37 38 39 40 41 42 43 44 45 46 47 48 49 50

000
ASUS41 KALY 161010
RWRALY

NEW YORK STATE HOURLY WEATHER ROUNDUP
NATIONAL WEATHER SERVICE ALBANY NY
600 AM EDT TUE SEP 16 2014

NOTE: "FAIR" INDICATES FEW OR NO CLOUDS BELOW 12,000 FEET WITH NO
SIGNIFICANT WEATHER AND/OR NO OBSTRUCTIONS TO VISIBILITY.

NYZ032-033-038>043-046>054-057>066-NYZ062>081-161100-
EAST


CITY           SKY/WX    TMP DP  RH WIND       PRES   REMARKS
ALBANY         RAIN      54  51  90 CALM      30.03F FOG
GLENS FALLS    LGT RAIN  51  49  92 S3        30.03F
POUGHKEEPSIE   CLOUDY    56  52  86 SE3       30.00F
NEWBURGH       MOCLDY    55  52  88 CALM      30.02F
MONTGOMERY     CLOUDY    54  51  90 N3        30.01F
WHITE PLAINS   PTCLDY    56  52  86 CALM      30.01F
ISLIP          PTCLDY    55  50  83 CALM      30.01F
NEW YORK CITY  MOCLDY    63  54  72 SE5       30.00F
CENTRAL PARK   CLEAR     61  51  70 E3        30.02F
$$

NYZ005>009-017-018-044>046-055-056-161100-
CENTRAL


CITY           SKY/WX    TMP DP  RH WIND       PRES   REMARKS
FULTON         CLOUDY    55  53  93 CALM      30.00R FOG
SYRACUSE       CLOUDY    56  54  93 SW3       30.00S
ROME           LGT RAIN  52  52 100 CALM      30.01F
ELMIRA         CLOUDY    54  53  97 SW5       30.01S
BINGHAMTON     LGT RAIN  51  51 100 SW6       30.01S FOG
MONTICELLO     CLOUDY    50  48  93 CALM      30.03F
$$

NYZ026>034-041>043-161100-
NORTH


CITY           SKY/WX    TMP DP  RH WIND       PRES   REMARKS
WATERTOWN      CLOUDY    55  50  83 S5        30.00R
FORT DRUM      NOT AVBL
MASSENA        CLOUDY    52  52 100 SW3       29.99S
SARANAC LAKE   LGT RAIN  48  47  96 S3        29.98F
PLATTSBURGH    LGT RAIN  51  51 100 CALM      29.99F
$$

NYZ001>004-010>016-019>021-161100-
WEST


CITY           SKY/WX    TMP DP  RH WIND       PRES   REMARKS
NIAGARA FALLS  CLOUDY    54  51  90 NW5       30.04R
BUFFALO        CLOUDY    54  52  93 W5        30.04R FOG
DUNKIRK        CLOUDY    54  52  93 S5        30.05S
JAMESTOWN      CLOUDY    48  46  93 CALM      30.06S
WELLSVILLE     CLOUDY    50  48  93 NW8       30.05R
ROCHESTER      DRIZZLE   54  52  93 W6        30.03R
PENN YAN       LGT RAIN  54  52  93 VRB5      30.03R
$$

             KEY
       WCI = WIND CHILL INDEX
       VSB = VISIBILITY
       HX  = HEAT INDEX
$$



USA.gov is the U.S. government's official web portal to all federal, state and local government web resources and services.